TimeEDT,TemperatureF,Dew PointF,Humidity,Sea Level PressureIn,VisibilityMPH,Wind Direction,Wind SpeedMPH,Gust SpeedMPH,PrecipitationIn,Events,Conditions,WindDirDegrees,DateUTC
12:15 AM,38.5,37.4,96,30.09,10.0,Calm,Calm,-,N/A,,Clear,0,2013-04-28 04:15:00
12:35 AM,37.9,37.0,97,30.09,10.0,Calm,Calm,-,N/A,,Clear,0,2013-04-28 04:35:00
12:56 AM,38.7,37.8,97,30.09,10.0,Calm,Calm,-,N/A,,Clear,0,2013-04-28 04:56:00
1:15 AM,36.9,36.3,98,30.08,10.0,Calm,Calm,-,N/A,,Clear,0,2013-04-28 05:15:00
1:35 AM,37.2,36.9,99,30.07,10.0,North,3.5,-,N/A,,Clear,350,2013-04-28 05:35:00
1:56 AM,37.2,37.0,99,30.07,7.0,Calm,Calm,-,N/A,,Clear,0,2013-04-28 05:56:00
2:15 AM,36.0,35.8,99,30.07,7.0,Calm,Calm,-,N/A,,Clear,0,2013-04-28 06:15:00
2:35 AM,36.5,36.1,99,30.07,7.0,Calm,Calm,-,N/A,,Clear,0,2013-04-28 06:35:00
2:55 AM,36.0,35.8,99,30.05,7.0,Calm,Calm,-,N/A,,Clear,0,2013-04-28 06:55:00
3:15 AM,35.2,35.1,99,30.05,7.0,Calm,Calm,-,N/A,,Clear,0,2013-04-28 07:15:00
3:36 AM,34.7,34.7,100,30.04,5.0,Calm,Calm,-,N/A,,Clear,0,2013-04-28 07:36:00
3:55 AM,35.1,35.1,100,30.04,5.0,Calm,Calm,-,N/A,,Clear,0,2013-04-28 07:55:00
4:15 AM,34.9,34.9,100,30.04,4.0,Calm,Calm,-,N/A,,Clear,0,2013-04-28 08:15:00
4:35 AM,33.8,33.8,100,30.03,7.0,Calm,Calm,-,N/A,,Clear,0,2013-04-28 08:35:00
4:55 AM,33.8,33.8,100,30.03,7.0,Calm,Calm,-,N/A,,Clear,0,2013-04-28 08:55:00
5:16 AM,34.0,34.0,100,30.03,7.0,Calm,Calm,-,N/A,,Clear,0,2013-04-28 09:16:00
5:35 AM,32.9,32.9,100,30.03,7.0,SE,3.5,-,N/A,,Clear,140,2013-04-28 09:35:00
5:55 AM,36.7,36.5,99,30.02,10.0,SE,3.5,-,N/A,,Clear,140,2013-04-28 09:55:00
6:15 AM,38.7,36.9,93,30.02,10.0,Calm,Calm,-,N/A,,Clear,0,2013-04-28 10:15:00
6:35 AM,38.8,36.3,91,30.02,10.0,Calm,Calm,-,N/A,,Clear,0,2013-04-28 10:35:00
7:15 AM,40.6,38.1,91,30.03,10.0,SE,6.9,-,N/A,,Clear,140,2013-04-28 11:15:00
7:35 AM,43.5,38.8,84,30.03,10.0,SE,8.1,-,N/A,,Clear,140,2013-04-28 11:35:00
7:56 AM,45.0,38.7,79,30.04,10.0,SE,5.8,-,N/A,,Clear,140,2013-04-28 11:56:00
8:15 AM,47.3,39.2,73,30.04,10.0,SE,3.5,-,N/A,,Clear,130,2013-04-28 12:15:00
8:35 AM,50.0,39.4,67,30.04,10.0,Calm,Calm,-,N/A,,Clear,0,2013-04-28 12:35:00
9:15 AM,50.7,40.3,67,30.03,10.0,Calm,Calm,-,N/A,,Clear,0,2013-04-28 13:15:00
9:35 AM,54.7,38.5,54,30.03,10.0,SSE,4.6,-,N/A,,Clear,150,2013-04-28 13:35:00
9:56 AM,55.8,38.3,52,30.03,10.0,SE,4.6,-,N/A,,Clear,140,2013-04-28 13:56:00
10:15 AM,56.8,38.1,50,30.02,10.0,Calm,Calm,-,N/A,,Clear,0,2013-04-28 14:15:00
10:35 AM,57.7,38.1,48,30.01,10.0,Calm,Calm,-,N/A,,Clear,0,2013-04-28 14:35:00
10:55 AM,60.1,37.0,42,30.01,10.0,SSE,4.6,-,N/A,,Scattered Clouds,160,2013-04-28 14:55:00
11:15 AM,59.5,37.9,45,30.01,7.0,South,5.8,-,N/A,,Mostly Cloudy,180,2013-04-28 15:15:00
11:35 AM,58.3,36.9,45,30.00,10.0,South,3.5,-,N/A,,Overcast,170,2013-04-28 15:35:00
11:55 AM,61.2,36.7,40,30.00,10.0,SSE,4.6,-,N/A,,Overcast,150,2013-04-28 15:55:00
12:16 PM,60.8,36.1,40,29.99,10.0,SSE,8.1,-,N/A,,Overcast,160,2013-04-28 16:16:00
12:35 PM,57.4,36.9,46,29.99,10.0,SE,5.8,-,N/A,,Overcast,130,2013-04-28 16:35:00
12:55 PM,56.7,37.0,48,29.99,10.0,South,6.9,-,N/A,,Overcast,170,2013-04-28 16:55:00
1:16 PM,56.7,37.9,50,29.98,10.0,ESE,5.8,-,N/A,,Overcast,110,2013-04-28 17:16:00
1:35 PM,56.7,38.7,51,29.97,10.0,ESE,4.6,-,N/A,,Overcast,120,2013-04-28 17:35:00
1:55 PM,56.5,37.9,50,29.97,10.0,SE,6.9,-,N/A,,Overcast,130,2013-04-28 17:55:00
2:16 PM,57.7,38.5,49,29.96,10.0,SE,6.9,-,N/A,,Overcast,130,2013-04-28 18:16:00
2:35 PM,57.2,38.5,50,29.96,10.0,ESE,6.9,-,N/A,,Overcast,120,2013-04-28 18:35:00
2:55 PM,57.0,38.7,50,29.95,10.0,SE,9.2,-,N/A,,Overcast,130,2013-04-28 18:55:00
3:16 PM,57.7,39.0,50,29.94,10.0,SE,8.1,-,N/A,,Overcast,140,2013-04-28 19:16:00
3:35 PM,59.0,39.6,49,29.93,10.0,SE,9.2,-,N/A,,Overcast,130,2013-04-28 19:35:00
3:55 PM,59.4,39.9,49,29.93,10.0,SE,9.2,-,N/A,,Mostly Cloudy,140,2013-04-28 19:55:00
4:15 PM,59.5,40.1,49,29.92,10.0,SE,12.7,18.4,N/A,,Mostly Cloudy,140,2013-04-28 20:15:00
4:35 PM,59.9,39.4,47,29.91,10.0,ESE,11.5,18.4,N/A,,Mostly Cloudy,120,2013-04-28 20:35:00
4:55 PM,59.9,39.9,48,29.91,10.0,SE,12.7,17.3,N/A,,Mostly Cloudy,140,2013-04-28 20:55:00
5:15 PM,58.8,40.3,50,29.91,10.0,SE,15.0,23.0,N/A,,Scattered Clouds,140,2013-04-28 21:15:00
5:36 PM,59.0,41.5,52,29.90,10.0,SE,11.5,18.4,N/A,,Clear,140,2013-04-28 21:36:00
5:55 PM,58.5,41.9,54,29.90,10.0,SE,12.7,23.0,N/A,,Clear,130,2013-04-28 21:55:00
6:15 PM,59.4,42.1,53,29.90,10.0,SE,15.0,23.0,N/A,,Clear,130,2013-04-28 22:15:00
6:36 PM,59.0,42.4,54,29.89,10.0,SE,12.7,21.9,N/A,,Clear,140,2013-04-28 22:36:00
6:55 PM,58.1,42.8,57,29.89,10.0,SE,12.7,20.7,N/A,,Clear,140,2013-04-28 22:55:00
7:15 PM,57.4,42.8,58,29.88,10.0,SE,12.7,19.6,N/A,,Clear,140,2013-04-28 23:15:00
7:36 PM,56.8,42.8,59,29.87,10.0,SE,10.4,16.1,N/A,,Clear,140,2013-04-28 23:36:00
7:55 PM,55.6,42.8,62,29.87,10.0,SSE,11.5,18.4,N/A,,Clear,150,2013-04-28 23:55:00
8:15 PM,52.5,41.9,67,29.88,10.0,SSE,12.7,16.1,N/A,,Clear,150,2013-04-29 00:15:00
8:35 PM,50.5,41.9,72,29.88,10.0,SE,9.2,-,N/A,,Clear,140,2013-04-29 00:35:00
8:55 PM,50.5,42.4,74,29.88,10.0,SE,11.5,18.4,N/A,,Clear,140,2013-04-29 00:55:00
9:16 PM,50.4,43.0,76,29.89,10.0,SSE,10.4,18.4,N/A,,Clear,150,2013-04-29 01:16:00
9:35 PM,50.9,44.1,77,29.89,10.0,SSE,12.7,18.4,N/A,,Clear,150,2013-04-29 01:35:00
9:55 PM,49.8,44.1,81,29.89,10.0,SSE,9.2,-,N/A,,Clear,150,2013-04-29 01:55:00
10:16 PM,47.7,43.2,84,29.90,10.0,SSE,9.2,-,N/A,,Clear,150,2013-04-29 02:16:00
10:35 PM,47.7,44.8,90,29.89,10.0,SSE,9.2,-,N/A,,Scattered Clouds,150,2013-04-29 02:35:00
10:55 PM,47.5,45.0,91,29.89,10.0,SSE,6.9,-,N/A,,Mostly Cloudy,160,2013-04-29 02:55:00
11:16 PM,47.3,45.9,95,29.88,10.0,SSE,6.9,-,N/A,,Mostly Cloudy,150,2013-04-29 03:16:00
11:35 PM,47.3,46.6,97,29.88,7.0,SSE,10.4,-,N/A,,Mostly Cloudy,150,2013-04-29 03:35:00
11:55 PM,46.6,46.4,99,29.87,5.0,SE,8.1,-,N/A,,Mostly Cloudy,140,2013-04-29 03:55:00